Location: Roanoke
(37.2710°N, 79.9420°W)
Time: 15:18:26
(UTC-04:00)

N. Korean satellite - Visible Passes

Search period start: 23 March 2019 00:00
Search period end: 02 April 2019 00:00
Orbit: 456 x 510 km, 97.2° (Epoch: 22 March)

Date Brightness Start Highest point End Pass type
(mag) Time Alt. Az. Time Alt. Az. Time Alt. Az.
23 Mar 9.9 06:35:54 10° NE 06:38:08 16° E 06:40:23 10° SE visible
27 Mar 10.0 06:30:21 10° ENE 06:32:13 14° E 06:34:06 10° SE visible
31 Mar 10.2 06:24:55 10° ENE 06:26:15 12° E 06:27:35 10° ESE visible
